Regional Weather Roundup
Issued by NWS

Home | Current Version | Previous Version | Text Only | Print | Product List | Glossary Off
Versions: 1 2 3 4 5 6 7 8 9 10 11 12 13 14 15 16 17 18 19 20 21 22 23 24 25 26 27 28 29 30 31 32 33 34 35 36 37 38 39 40 41 42 43 44 45 46 47 48 49 50

000
ASUS45 KTFX 310819
RWRMT
MONTANA REGIONAL WEATHER ROUNDUP
NATIONAL WEATHER SERVICE GREAT FALLS MT
200 AM MDT MON AUG 31 2015

NOTE: "FAIR" INDICATES FEW OR NO CLOUDS BELOW 12000 FEET WITH NO
SIGNIFICANT WEATHER AND/OR OBSTRUCTIONS TO VISIBILITY.

MTZ001>007-043-310900-
WEST OF THE DIVIDE

CITY           SKY/WX    TMP DP  RH WIND       PRES   REMARKS
KALISPELL      MOSUNNY   47  43  86 S5        29.99F
MISSOULA       PTCLDY    43  41  93 SW3       30.08R
BUTTE          PTCLDY    44  38  79 CALM      30.12R
MULLAN PASS    CLOUDY    41  39  93 VRB5G18   30.07S
DEER LODGE       N/A     45  37  76 N5        30.12S
EUREKA           N/A     54  43  66 E7        29.97S
HAMILTON         N/A     52  39  62 S6        30.08S
LIBBY            N/A     48  48 100 NW3       29.98F VSB 1/2
PLAINS           N/A     55  43  64 S2        30.02F
RONAN            N/A     50  41  71 SE6       30.08S
$$

MTZ008-052>055-310900-
SOUTHWEST MONTANA

CITY           SKY/WX    TMP DP  RH WIND       PRES   REMARKS
BOZEMAN        CLEAR     45  39  79 NE7       30.05S
DILLON         PTCLDY    50  34  54 S10       30.07S
W YELLOWSTONE  CLEAR     46  23  39 SW8       30.13S
THREE FORKS      N/A     52  39  61 CALM      30.04S
TWIN BRIDGES     N/A     55  33  43 NW2       30.06R
$$

MTZ009-010-012-014-046-048-049-054-310900-
EAST SLOPES AND CENTRAL MONTANA

CITY           SKY/WX    TMP DP  RH WIND       PRES   REMARKS
CUT BANK       CLEAR     53  35  50 W21G32    29.84F
GREAT FALLS    CLEAR     52  32  46 S14       29.92S
MALMSTROM AFB  CLEAR     55  33  41 SW25G32   29.92S
HELENA         PTCLDY    55  37  50 SW9       30.04R
CONRAD           N/A     44  36  73 SW6       29.91S
$$

MTZ011-013-016-021-045-047-050-051-310900-
NORTH CENTRAL MONTANA

CITY           SKY/WX    TMP DP  RH WIND       PRES   REMARKS
HAVRE          CLEAR     52  39  61 MISG      29.84R
LEWISTOWN      PTCLDY    52  43  71 W10       29.94R
N BAR RANCH      N/A     48  45  87 NW8       29.95S
CHINOOK          N/A     55  41  58 SW8       29.83S
FORT BENTON      N/A     55  34  44 S7        29.89S
$$

MTZ017>020-022>027-061-062-310900-
NORTHEAST MONTANA

CITY           SKY/WX    TMP DP  RH WIND       PRES   REMARKS
GLASGOW        LGT RAIN  57  52  83 N9        29.78F
JORDAN           N/A     58  49  72 NW7       29.83F
SIDNEY         CLOUDY    63  57  82 W13       29.77F
WOLF POINT     MOCLDY    63  54  72 W20G31    29.80R
MALTA            N/A     55  49  80 CALM      29.80S
PLENTYWOOD       N/A     64  54  68 W23G32    29.76R
POPLAR           N/A     64  54  68 W15G31    29.78R
SCOBEY           N/A     61  47  59 W31       29.79R
$$

MTZ028>42-056>058-310900-
SOUTHCENTRAL AND SOUTHEAST MONTANA

CITY           SKY/WX    TMP DP  RH WIND       PRES   REMARKS
BAKER          CLOUDY    64  58  80 N6        29.76F
BILLINGS       PTCLDY    59  41  51 SW3       29.97R
LIVINGSTON     CLEAR     56  37  49 W17       30.01F
MILES CITY     MOCLDY    64  52  64 N23G36    29.82R
EKALAKA          N/A     66  50  56 E6        29.78R
FORSYTH          N/A     64  48  55 N7        29.87R
LAUREL           N/A     57  42  57 CALM      29.97R
ROUNDUP          N/A     57  42  57 MISG      29.86R
$$

REGIONAL REPORTS...DAKOTAS

CITY           SKY/WX    TMP DP  RH WIND       PRES   REMARKS
WILLISTON      LGT RAIN  64  58  80 W12       29.73R
MINOT          CLOUDY    65  54  67 SW7       29.70R
DICKINSON      CLOUDY    70  50  49 NW14G31   29.76R
BEACH            N/A     59  59 100 N3        29.76F
CROSBY           N/A     63  50  63 SW5       29.71R
BISMARCK       CLOUDY    71  61  70 SE6       29.62S HAZE
GRAND FORKS    CLEAR     69  65  86 S14       29.64F
FARGO          CLEAR     68  60  75 S16G25    29.69F
BUFFALO SD       N/A     67  52  58 MISG      29.67R
RAPID CITY     MOCLDY    74  51  44 SW7       29.77F
$$

REGIONAL REPORTS...WYOMING/IDAHO/WASHINGTON

CITY           SKY/WX    TMP DP  RH WIND       PRES   REMARKS
GILLETTE       CLOUDY    67  47  48 W10       29.86R
SHERIDAN       CLOUDY    63  48  58 NW28G39   29.91R
BUFFALO WY     CLOUDY    70  40  33 W10       29.93R
CODY           PTCLDY    68  21  17 W9G16     29.98R
YELLOWSTONE LA   N/A     38  27  64 CALM      30.20F
IDAHO FALLS    CLEAR     56  33  42 SW12      30.06R
SALMON         PTCLDY    52  39  62 CALM      30.09R
BOISE          CLEAR     60  43  53 NW6       30.04R
SPOKANE        MOCLDY    53  43  68 S10       29.99R
$$

REGIONAL REPORTS...ALBERTA

CITY           SKY/WX    TMP DP  RH WIND       PRES   REMARKS
EDMONTON       PTCLDY    50  41  71 SW3       29.51R
CALGARY        PTCLDY    55  30  38 SW13      29.66S
LETHBRIDGE     CLEAR     57  36  44 W26G35    29.77R
MEDICINE HAT   CLEAR     54  37  54 SW16G23   29.72R
WATERTON GATE    N/A     52  34  50 SW21G37     N/A
CARDSTON         N/A     54  34  47 W13G23      N/A
MILK RIVER       N/A     52  36  54 W8          N/A
ONEFOUR          N/A     50  36  57 W8          N/A
$$

REGIONAL REPORTS...SASKATCHEWAN

CITY           SKY/WX    TMP DP  RH WIND       PRES   REMARKS
SWIFT CURRENT  CLOUDY    59  37  44 SW13      29.70S
REGINA         LGT RAIN  61  55  82 W20G31    29.69R
SASKATOON      MOCLDY    61  43  51 SW18G25   29.58R
CYPRESS HILLS    N/A     48  34  57 SW12G17     N/A
VAL MARIE        N/A     55  48  76 SW13        N/A
ROCKGLEN         N/A     54  52  94 SW24G38     N/A
ASSINIBOIA       N/A     46  45  93 S5          N/A
$$



USA.gov is the U.S. government's official web portal to all federal, state and local government web resources and services.